Theta_e
293 294 294 293 292 293 292 293 293 294 297 304 307 309 310 312 313 313 313 316 318 319 322 326 330 334 340 344 345 345 347 346 347 350 348 346 351 356 355 355 354 356 356 357
290 292 292 291 293 293 293 293 294 294 297 306 308 310 309 307 309 308 309 311 314 318 320 320 325 328 330 335 341 344 344 347 351 352 353 353 354 355 355 354 354 354 353 355
287 291 291 287 292 293 294 298 297 293 300 304 303 306 304 303 303 304 305 308 311 313 317 322 323 326 325 328 338 344 345 346 348 352 351 353 352 353 353 354 354 354 353 353
288 288 282 291 297 295 296 299 301 301 302 302 302 303 305 305 305 305 305 306 309 311 314 319 323 324 324 329 333 341 346 346 349 349 349 352 353 352 353 352 353 353 352 354
287 286 288 291 294 295 294 294 301 300 300 301 302 304 305 306 306 305 306 307 308 310 313 317 321 325 325 325 329 328 333 339 342 347 350 350 351 352 353 352 350 350 351 353
289 284 282 291 297 300 300 290 299 301 299 299 301 298 304 305 305 305 306 307 308 309 312 314 318 322 325 323 327 328 326 328 335 341 343 351 352 353 354 355 352 352 351 352
289 287 289 295 298 301 288 292 299 300 299 299 298 301 303 304 304 305 305 306 308 309 311 313 316 320 321 324 323 325 326 325 328 336 337 339 351 356 354 355 355 354 354 355
289 287 284 299 297 293 297 299 299 299 299 298 300 301 302 303 303 304 304 305 306 307 309 311 313 316 319 321 326 325 323 323 325 329 333 337 339 340 345 350 350 352 353 354
292 292 298 300 298 300 299 297 298 299 298 298 298 299 300 301 302 303 304 304 305 306 308 310 311 314 316 321 324 323 319 319 321 324 328 333 333 339 343 346 347 351 351 350
291 295 297 300 300 300 300 299 300 300 299 300 298 299 300 301 302 303 304 304 305 305 306 307 310 312 314 320 323 321 319 316 318 320 322 327 328 332 337 339 343 345 349 351
293 294 295 297 298 300 300 301 300 300 300 299 300 300 299 300 301 303 304 306 306 306 306 307 309 311 313 317 321 317 317 316 317 317 320 322 325 325 330 336 334 343 347 350
293 298 298 297 300 302 300 300 301 300 299 301 301 301 300 300 300 301 303 305 306 307 307 307 311 313 314 318 318 315 314 315 314 314 314 319 316 321 315 311 310 308 305 313
298 300 300 301 302 302 301 301 302 302 302 301 302 302 302 300 301 302 303 302 302 303 304 306 305 308 312 314 309 310 312 312 313 311 314 314 316 316 317 320 308 307 304 304
299 299 297 299 299 302 302 303 303 304 304 303 303 302 302 302 303 301 300 302 303 303 302 303 303 303 306 306 307 308 309 305 306 310 312 313 314 316 318 319 321 322 318 315
299 301 301 303 303 302 303 303 302 302 303 302 304 302 302 301 301 301 303 302 301 301 301 301 301 303 303 305 307 306 307 304 305 306 308 309 310 313 314 317 319 322 327 323
299 299 300 300 302 302 302 302 302 302 303 303 302 302 302 302 301 301 301 300 298 297 299 299 299 300 303 303 304 304 305 304 304 304 305 306 308 309 312 316 318 320 323 326
296 295 297 299 301 302 302 303 303 303 304 303 304 304 304 303 302 301 299 299 299 299 299 300 298 302 304 303 304 303 302 303 304 305 304 304 306 308 310 312 313 317 323 328
303 303 303 304 303 303 303 303 303 304 304 305 305 304 303 301 300 299 298 299 299 299 300 300 303 302 300 302 302 301 302 302 303 303 303 305 305 307 308 309 310 312 315 321
305 303 304 303 303 303 303 303 304 305 306 305 304 304 304 302 300 299 299 299 299 299 301 302 303 300 298 300 302 302 302 301 301 302 303 304 304 305 305 306 306 307 309 311
306 307 307 305 306 303 304 305 305 305 305 305 304 304 303 302 301 301 301 298 301 302 303 302 301 299 298 298 301 298 297 298 298 299 300 300 300 300 300 299 300 302 304 308
306 306 306 306 307 307 306 306 306 305 305 305 305 304 304 303 302 302 301 300 301 302 303 302 301 299 297 298 295 295 296 296 296 296 296 296 297 297 297 298 298 298 299 298
306 305 305 305 306 307 308 307 306 305 305 305 306 306 304 303 302 302 303 302 304 303 305 303 301 301 298 298 294 292 293 294 294 294 294 294 294 294 294 295 295 295 294 295
304 305 306 306 303 305 305 305 304 304 305 306 306 305 303 302 302 300 299 305 305 305 305 304 300 300 299 295 293 291 290 291 292 293 293 294 293 293 293 292 293 293 293 293
304 304 303 303 304 303 303 305 303 301 304 307 307 307 304 301 302 305 305 303 302 302 305 303 300 299 298 297 295 292 290 289 288 290 292 293 293 293 292 292 292 292 292 292
300 302 305 303 301 302 301 300 300 302 303 305 306 306 305 306 303 304 305 304 301 302 305 301 299 298 299 298 297 294 293 291 291 288 288 291 292 291 292 292 293 292 292 292
302 302 301 303 299 301 301 301 300 300 302 303 304 305 306 306 306 305 303 301 303 303 304 304 302 302 302 299 298 296 295 293 292 291 289 288 291 291 291 290 291 292 292 292
302 300 302 301 301 300 301 302 302 299 302 303 302 304 305 306 305 303 301 302 302 302 302 302 302 302 302 301 299 299 298 297 293 293 292 291 290 290 291 290 289 288 289 290
Wind_Speed
9 6 3 0 1 4 4 4 3 9 8 5 6 8 10 11 13 15 17 18 17 16 14 13 13 13 10 8 6 11 13 15 17 16 15 13 13 14 14 14 14 14 14 14
4 4 3 4 4 4 1 4 3 3 7 3 3 4 8 11 12 14 15 16 17 17 16 16 14 14 13 12 10 8 11 15 14 13 13 14 14 15 14 15 14 14 15 15
4 3 1 6 5 6 2 2 4 5 6 5 4 4 7 9 11 13 14 15 16 16 15 14 14 13 13 12 11 9 9 11 14 13 14 14 15 14 14 14 14 15 15 15
5 3 5 6 4 1 2 4 4 5 6 6 3 2 3 5 10 12 13 14 14 14 15 15 14 12 13 12 12 12 5 4 9 12 14 14 14 15 14 13 14 14 15 15
4 6 2 6 2 1 3 4 3 5 2 3 5 2 7 3 12 13 13 12 12 12 14 13 14 16 14 12 10 10 12 10 8 10 13 14 14 14 14 13 13 14 14 15
3 4 6 6 7 3 3 6 4 4 4 6 10 5 6 6 13 14 15 13 14 15 14 13 14 15 15 13 13 12 11 13 14 9 8 9 12 13 13 13 14 12 14 15
4 4 2 3 5 3 6 6 4 3 3 3 4 5 14 15 13 11 12 15 16 15 13 13 14 14 14 14 12 12 13 12 12 13 8 7 8 8 12 13 13 13 14 14
2 4 7 6 5 5 6 3 1 1 2 6 7 10 14 16 16 15 14 14 15 14 16 15 14 13 13 13 13 13 13 13 11 12 10 8 7 6 8 7 11 11 13 13
7 3 3 5 2 5 4 4 4 2 3 6 9 11 12 15 16 16 16 13 13 13 16 17 15 13 14 13 12 11 12 13 14 13 12 8 8 10 7 10 11 11 11 11
3 6 10 8 3 4 6 5 5 3 2 7 10 10 12 12 14 15 16 16 15 15 16 18 15 15 15 14 11 10 11 12 12 13 12 12 8 8 7 10 10 10 9 12
5 5 2 7 7 3 6 6 4 3 3 6 8 9 10 11 12 13 17 16 15 15 15 17 17 17 16 15 10 9 10 11 11 10 12 12 10 9 10 9 9 10 7 8
6 8 4 4 9 11 9 8 7 6 4 3 5 7 9 8 8 9 12 13 14 15 14 14 17 17 15 14 8 8 9 9 9 10 10 9 10 12 12 16 14 19 17 13
3 9 5 9 10 12 11 10 9 9 6 5 5 6 8 8 9 11 9 8 8 10 13 13 12 13 11 6 7 9 9 9 9 10 11 11 11 9 11 9 13 18 18 19
4 10 6 10 7 13 10 9 8 8 6 6 5 4 6 9 11 10 8 8 11 12 13 12 10 9 9 9 10 10 11 9 9 10 11 11 11 11 10 12 12 9 10 14
14 14 1 6 9 9 9 6 7 7 6 5 3 4 6 8 11 13 14 9 9 11 10 10 13 12 8 12 13 12 10 8 8 10 11 12 12 12 11 12 12 11 12 14
7 15 11 8 9 9 8 8 7 7 6 5 4 5 5 6 8 10 9 8 8 8 10 11 12 12 13 11 12 11 10 15 13 10 10 11 10 11 10 10 11 9 9 14
5 10 12 12 11 11 11 8 7 7 6 6 7 4 4 5 8 11 7 6 6 7 8 10 12 15 16 14 12 9 10 11 16 10 10 10 10 11 9 9 9 10 13 14
4 5 7 10 9 10 10 9 8 8 8 7 5 5 4 4 8 8 7 7 8 9 9 8 14 14 16 17 14 11 10 10 9 9 10 10 11 10 10 10 11 11 13 15
10 11 11 9 9 8 9 9 9 8 7 6 6 6 5 3 4 5 5 7 8 10 13 11 18 15 15 16 16 9 9 8 10 10 10 11 10 9 9 9 10 9 10 10
6 6 7 8 9 10 11 9 8 7 7 8 7 7 7 5 4 4 5 4 7 7 11 13 14 12 13 15 17 8 9 10 9 8 8 8 9 9 8 8 9 9 8 7
7 8 11 11 13 12 12 9 9 9 9 10 10 9 9 7 7 6 7 7 6 5 8 15 14 11 9 13 11 9 7 7 7 6 6 6 7 7 6 6 5 5 4 3
5 7 8 9 9 10 10 7 9 8 9 9 9 8 8 7 8 8 11 11 11 11 8 7 9 20 16 20 9 9 10 8 6 4 4 4 4 3 1 2 2 2 3 3
6 7 10 4 3 7 7 7 6 6 10 10 10 10 8 4 4 5 8 7 5 6 6 2 12 18 21 10 9 10 10 10 9 7 6 5 4 2 3 3 4 4 5 5
6 6 5 1 4 9 5 6 5 2 7 8 8 8 5 3 3 4 5 8 8 5 1 4 7 13 14 8 9 10 10 10 10 10 8 9 6 6 4 4 7 6 7 8
3 7 7 3 2 3 3 5 5 4 4 7 6 5 5 3 5 4 6 6 6 5 1 6 5 5 5 7 8 9 9 10 11 9 10 10 7 7 8 4 7 7 10 10
7 5 3 6 3 4 1 4 2 3 3 3 4 3 2 3 4 5 4 4 4 2 3 2 2 4 2 1 5 6 7 9 11 11 12 10 9 8 8 7 10 8 9 10
4 4 5 5 5 3 4 6 8 2 2 2 5 3 1 2 2 4 2 4 4 4 3 4 4 4 3 2 1 2 4 4 6 8 8 9 9 9 8 9 8 8 9 11
Wind_Direction
77 82 73 93 350 19 49 99 303 128 120 90 53 44 39 38 38 34 28 25 23 19 15 12 12 8 3 360 325 257 226 224 222 217 211 214 217 221 221 220 224 227 231 228
69 13 360 269 269 276 179 145 144 147 118 116 75 58 50 35 30 31 23 18 12 11 12 10 359 358 350 343 328 307 259 242 238 230 225 220 220 219 215 218 223 224 227 231
140 355 278 248 232 214 143 147 153 185 98 145 115 65 41 39 37 24 14 7 3 2 358 356 352 346 343 328 312 280 260 252 250 243 233 227 227 227 223 221 218 220 228 231
134 150 219 82 20 312 235 105 113 98 97 91 60 350 164 67 26 13 5 359 353 349 347 345 346 351 340 340 356 345 322 296 270 252 246 240 234 233 231 228 225 221 224 227
195 199 20 186 204 142 214 119 73 130 72 20 344 248 184 74 4 352 348 344 343 338 336 333 339 347 347 344 349 355 353 339 340 325 254 245 242 241 239 236 232 231 231 226
182 227 207 87 125 52 159 228 59 102 79 4 344 262 97 355 345 338 335 336 335 333 328 334 337 338 337 345 341 350 346 334 321 313 304 285 252 246 244 237 239 237 238 232
184 243 239 134 135 153 215 82 120 60 32 353 313 322 312 315 317 320 322 324 329 326 323 330 330 330 328 332 338 337 332 329 327 320 316 307 302 266 240 241 247 243 241 240
186 231 236 151 139 223 87 134 113 341 342 310 302 301 301 306 310 315 318 321 322 317 316 321 324 321 318 319 327 327 327 325 326 319 313 335 304 292 296 258 241 242 247 248
213 238 125 159 97 116 140 201 187 217 340 328 314 309 308 307 310 313 313 314 313 309 308 309 315 315 307 309 316 320 323 321 323 325 323 307 310 294 281 256 259 259 247 245
228 199 225 217 210 156 152 139 150 157 337 333 318 313 308 310 314 315 314 312 308 303 299 300 306 306 300 300 300 305 313 316 316 319 321 314 309 295 281 277 267 259 259 255
246 242 238 233 228 185 165 159 179 222 289 338 325 316 314 312 314 324 319 309 304 303 300 298 299 295 293 293 283 286 303 308 306 301 307 304 295 285 276 263 268 292 283 277
221 174 177 165 190 186 186 196 208 223 261 300 288 309 325 310 308 304 321 320 311 312 314 315 301 292 287 284 279 280 291 294 302 300 291 290 291 288 251 251 268 272 256 247
207 172 163 156 173 186 200 205 211 221 235 263 291 317 337 330 319 316 314 326 326 322 328 325 341 333 324 326 301 293 286 291 290 292 291 291 285 290 299 283 246 246 251 263
216 148 174 180 191 197 205 206 213 236 247 258 293 305 337 347 341 336 332 322 320 324 320 320 318 316 311 304 294 287 289 286 280 281 284 284 283 285 285 291 294 301 280 262
210 215 185 160 165 173 191 201 225 239 244 249 264 316 324 329 340 342 336 332 328 315 314 314 318 312 311 302 294 289 282 281 288 286 282 282 279 276 274 276 275 281 297 288
221 217 203 203 201 201 203 215 235 252 237 239 259 273 301 310 321 340 340 338 337 331 330 329 319 313 305 296 286 281 279 277 271 273 276 277 274 272 270 269 273 283 279 276
156 196 202 219 227 224 217 226 225 243 247 235 242 267 300 319 315 342 339 333 332 316 326 332 323 315 312 301 292 280 276 275 272 267 267 272 270 270 274 279 280 283 282 280
238 289 231 228 228 224 220 217 219 223 223 239 235 224 262 297 331 331 327 329 316 308 304 302 320 338 322 308 299 288 276 267 262 262 270 262 264 268 267 269 270 265 273 280
257 235 235 225 237 228 218 209 215 223 213 209 212 213 214 244 313 308 322 309 315 330 345 331 331 335 320 312 308 286 279 278 274 268 263 266 265 265 265 265 269 272 277 281
208 229 250 249 246 229 229 219 221 228 200 187 192 186 197 215 215 241 296 332 327 342 345 343 345 330 332 319 330 319 294 279 273 269 269 269 269 268 270 266 271 277 281 290
263 263 259 243 248 232 230 239 227 222 194 186 190 194 202 200 205 231 271 286 267 272 342 357 354 344 348 352 346 326 308 294 280 275 272 271 271 268 275 280 280 284 297 311
309 296 281 269 259 237 217 209 220 222 192 187 190 189 197 206 227 249 261 267 286 286 291 357 358 359 359 2 342 342 338 335 326 318 316 302 280 274 307 314 320 9 44 51
317 302 284 263 258 243 178 184 196 233 209 186 188 189 197 211 243 265 290 330 296 299 310 40 21 0 6 3 358 355 353 354 355 1 351 331 333 8 58 61 75 72 72 70
329 320 277 165 213 224 183 129 87 237 218 194 192 188 177 204 243 236 284 294 283 290 291 131 50 30 360 1 7 10 7 3 5 0 2 355 2 27 34 45 81 84 78 71
7 332 308 235 235 228 105 74 100 147 157 209 171 174 177 210 250 304 321 311 285 267 311 157 165 65 35 357 15 21 15 9 14 8 6 7 6 27 43 15 73 76 76 66
13 6 1 27 16 337 54 170 142 59 278 173 158 158 189 240 235 269 301 303 295 316 283 196 298 243 253 38 9 19 26 30 21 19 10 4 6 12 42 25 45 49 61 69
49 53 78 47 47 61 93 121 107 108 255 233 125 118 123 210 185 242 275 359 345 316 306 297 302 292 311 265 212 307 5 33 59 46 21 7 9 14 19 39 47 43 43 61